Wind_Speed
7 7 7 7 7 6 6 6 6 6 6 6 6 6 6 5 5 5 6 6 6 6 7 6 7 7 7 7 7 6 6 6 6 6 5 5 5 5 5 5 5 6 6 6
7 7 7 7 7 6 6 6 6 6 6 6 6 6 6 6 6 6 7 6 7 7 7 8 8 8 8 8 8 7 7 7 7 7 7 6 6 6 5 6 7 6 7 7
8 7 7 7 7 7 6 6 7 7 7 7 7 7 7 7 7 7 8 8 8 8 8 8 9 9 9 9 8 8 8 8 8 8 8 8 8 7 7 7 7 8 8 8
8 7 7 7 6 6 6 7 7 7 7 7 7 6 7 7 8 8 8 8 8 8 8 9 9 9 9 9 9 8 8 8 8 8 8 8 8 8 8 8 8 8 9 10
9 8 7 7 7 7 7 8 7 7 7 7 7 7 7 8 8 8 8 8 8 8 9 9 9 9 9 9 9 9 9 9 9 8 8 8 8 8 9 9 9 9 9 10
9 9 9 8 8 8 8 8 8 8 8 7 8 8 8 8 8 8 9 9 9 9 9 9 9 9 10 10 10 10 10 9 9 9 9 9 9 9 10 10 10 10 10 10
10 10 10 9 8 8 8 8 9 9 9 9 9 9 9 9 9 9 9 9 9 10 10 10 10 10 11 11 11 11 11 10 10 10 10 10 10 10 10 10 11 11 11 11
11 11 10 10 9 9 9 9 9 10 10 11 10 9 10 11 11 10 10 10 10 10 11 11 11 12 12 12 12 12 12 11 11 11 10 10 11 11 11 12 12 12 12 12
12 12 11 11 10 10 9 9 10 11 11 10 10 10 10 12 12 11 11 11 11 11 12 12 12 13 13 12 12 12 12 12 11 11 12 12 12 12 12 13 13 14 14 14
14 14 13 12 12 12 11 11 11 11 11 11 11 11 11 12 13 13 12 12 12 12 12 13 13 13 13 13 13 13 12 12 12 13 13 13 13 13 13 13 14 14 14 15
15 15 14 14 14 13 13 13 12 13 13 12 12 12 12 12 13 13 13 13 13 13 14 14 14 14 14 14 13 13 13 13 13 14 15 15 15 14 14 15 15 15 15 15
15 15 15 16 16 15 15 14 14 14 14 14 14 13 12 13 13 14 14 14 14 14 14 14 14 14 14 14 13 13 13 13 14 14 14 15 15 15 15 16 16 16 15 15
16 16 16 16 16 16 16 16 15 15 15 14 14 14 14 14 14 14 14 15 15 16 15 15 15 14 14 15 15 14 14 14 14 14 15 15 15 15 15 16 16 16 16 16
17 17 17 16 16 17 17 17 17 16 16 16 15 15 15 15 15 15 15 16 16 16 16 16 16 16 15 15 15 15 15 15 15 15 15 16 16 16 16 16 16 16 16 16
19 18 18 18 17 18 18 17 17 17 17 17 16 16 16 16 16 16 16 16 17 16 16 16 16 16 15 16 16 16 16 16 16 16 16 16 16 16 17 17 16 16 16 16
20 20 20 20 19 19 19 17 18 18 17 17 17 16 16 17 17 17 17 17 17 17 16 16 16 16 16 16 16 17 16 17 17 17 17 17 17 17 17 17 17 17 16 17
21 21 21 21 20 21 20 18 18 18 18 18 18 17 17 18 18 18 18 17 17 17 17 17 17 17 18 18 18 18 18 18 18 18 18 18 18 18 18 18 18 17 17 18
23 22 22 22 22 22 18 18 19 19 19 19 19 19 19 19 19 19 19 19 19 18 18 18 17 17 18 18 19 19 19 19 19 19 19 20 19 19 19 19 19 19 19 19
24 24 24 24 24 23 20 19 20 21 20 20 20 21 21 21 20 20 20 20 20 20 19 19 19 19 19 20 21 20 20 20 20 21 21 20 20 20 20 20 20 20 20 20
26 25 25 25 25 25 23 21 21 22 21 20 21 21 22 21 21 21 21 21 21 21 21 21 21 21 21 21 21 21 21 21 21 21 21 21 21 21 21 21 21 21 21 21
27 27 27 27 27 26 25 23 22 23 22 22 22 22 22 22 22 22 21 21 21 21 21 21 21 22 22 22 22 22 22 22 22 22 22 22 22 22 22 22 22 22 22 23
29 29 29 29 29 28 26 25 25 24 24 24 24 24 24 23 23 23 23 23 22 22 22 22 22 22 22 22 22 22 22 22 22 22 22 23 23 23 23 23 23 23 23 23
31 31 31 31 30 29 28 28 27 26 26 25 25 25 25 25 24 24 24 24 24 23 23 23 23 23 23 24 24 23 23 23 23 23 23 23 24 24 24 24 24 25 25 24
32 32 32 32 31 30 30 30 29 29 28 27 27 27 27 26 26 26 25 25 26 25 25 24 24 24 24 25 25 25 24 24 24 24 24 24 25 25 26 26 26 26 26 26
33 32 32 32 32 31 31 31 31 31 30 29 29 28 28 28 27 27 26 27 27 27 26 26 25 25 25 25 25 25 25 25 25 25 25 25 25 26 26 26 26 26 26 26
34 34 33 33 32 33 33 32 32 31 31 30 30 30 30 29 29 29 29 28 28 28 27 27 27 27 27 27 26 26 26 25 25 25 25 25 26 26 26 26 25 25 25 26
Wind_Direction
294 300 300 300 298 292 290 292 296 303 308 310 314 313 309 308 307 311 312 310 311 312 313 313 312 315 316 316 315 311 306 304 301 294 289 280 279 276 271 265 257 255 252 252
290 294 294 292 291 289 288 288 287 291 298 302 305 308 305 304 307 308 309 308 306 308 308 309 308 308 308 308 306 302 300 297 294 290 282 281 280 279 278 274 266 263 259 257
277 284 288 290 289 288 287 287 286 288 293 297 299 304 301 301 303 306 309 308 304 304 304 305 304 304 304 305 304 301 299 295 290 285 279 279 276 276 278 278 272 267 264 261
270 277 282 284 285 284 284 287 291 289 291 291 292 298 298 298 299 304 307 306 303 300 301 302 301 302 303 303 303 299 297 294 290 285 278 275 275 275 276 279 275 268 263 263
266 270 274 275 276 277 280 283 289 289 289 288 290 294 298 296 297 300 303 303 301 298 298 301 301 300 299 299 300 297 297 292 288 284 279 275 274 272 273 276 276 272 267 266
262 264 269 272 273 276 278 280 284 286 289 288 288 290 294 296 296 297 299 300 299 299 299 300 300 298 296 295 296 296 294 292 287 283 280 276 274 273 274 274 274 273 270 267
261 264 268 269 271 276 278 279 283 285 286 285 285 286 291 291 292 294 297 296 295 295 297 299 299 297 295 293 293 294 293 289 287 284 279 276 275 275 275 275 273 271 270 271
260 262 264 267 270 275 276 277 277 280 282 284 284 285 287 287 291 291 292 291 291 290 291 294 296 295 294 293 293 292 291 289 286 284 281 279 280 279 277 276 273 272 270 268
259 260 261 265 268 270 274 275 276 277 279 281 282 285 284 284 288 291 290 290 289 288 290 293 293 293 292 292 291 290 287 286 284 284 283 283 282 282 279 277 275 272 270 268
256 257 260 264 265 266 267 272 274 276 280 283 285 284 287 287 287 287 288 289 288 288 292 294 293 292 292 292 291 289 286 282 282 283 284 285 283 282 280 277 276 273 270 270
255 257 259 262 265 267 266 270 273 273 276 279 282 282 287 288 286 285 287 287 287 288 290 292 292 292 293 292 290 288 286 284 285 287 286 285 284 283 280 278 277 275 271 272
257 259 260 263 264 265 267 267 272 273 274 276 279 283 286 284 285 284 286 287 288 289 289 290 292 292 292 291 290 287 286 285 286 287 287 287 287 283 280 278 276 274 271 271
259 260 262 263 263 262 263 264 266 270 272 275 278 282 286 284 283 284 286 287 288 288 289 290 291 291 291 290 288 285 284 284 285 286 286 287 286 285 282 278 276 273 272 272
259 260 261 261 261 261 263 265 265 268 270 274 276 278 281 283 282 283 286 288 289 290 289 289 288 289 289 289 287 284 283 284 285 285 284 283 284 283 282 279 277 276 274 273
261 260 261 259 259 261 265 266 266 268 269 273 274 275 277 278 280 282 285 288 289 289 289 289 289 289 289 289 287 285 284 284 284 283 283 283 283 281 280 277 275 275 275 273
260 261 261 260 262 264 265 267 268 269 271 274 275 275 273 275 278 281 285 288 288 289 288 288 287 287 287 287 287 285 283 284 285 284 284 284 282 281 279 276 275 275 275 273
260 261 262 262 263 266 266 267 268 270 272 274 275 274 273 275 278 281 283 284 286 285 285 286 285 285 284 284 287 286 284 283 284 284 284 283 282 281 282 279 277 277 275 273
261 262 264 263 264 265 268 269 269 269 269 271 272 272 274 276 278 280 281 282 283 283 283 284 285 284 284 284 285 285 285 284 283 285 286 285 282 282 281 280 278 276 274 273
260 262 263 262 264 268 269 270 270 269 268 269 269 271 273 275 277 278 280 281 282 283 285 285 285 284 283 284 285 284 283 283 283 284 284 284 282 281 280 279 278 277 276 274
258 260 261 262 263 267 269 269 269 270 269 268 269 269 271 274 276 278 280 281 282 283 284 286 286 286 286 287 286 285 285 285 285 284 282 282 282 281 280 279 278 277 275 274
257 259 261 263 264 266 268 268 268 268 269 268 269 270 272 273 274 277 278 280 281 281 283 284 285 286 286 287 287 286 285 285 285 283 282 282 282 282 281 280 280 278 275 273
257 258 260 262 263 266 269 269 268 268 267 268 269 270 272 274 274 275 276 277 280 281 282 283 283 284 284 285 286 286 285 285 284 284 283 282 281 281 280 280 279 278 277 276
256 257 259 260 262 264 267 268 267 267 266 267 269 270 272 272 273 274 275 276 277 279 280 280 280 281 282 284 285 286 285 285 284 285 285 283 281 280 280 280 280 279 277 275
256 257 258 259 260 263 264 266 267 266 265 266 268 269 271 272 272 272 273 274 275 276 278 278 278 279 281 283 284 285 285 284 284 285 285 284 283 281 281 281 281 280 278 277
256 257 258 259 260 262 262 263 264 264 264 265 267 268 270 271 271 272 272 273 273 274 276 277 277 277 279 281 282 283 284 283 283 284 284 284 284 283 282 281 280 280 280 279
256 257 258 259 259 260 261 262 263 264 265 265 266 267 269 270 270 271 271 272 272 272 274 275 275 276 278 279 280 282 283 284 283 283 283 284 283 283 282 282 281 281 281 280
Height
5879 5880 5880 5879 5879 5878 5878 5877 5877 5877 5875 5875 5874 5874 5873 5872 5872 5871 5870 5869 5869 5868 5867 5866 5865 5864 5863 5862 5860 5859 5858 5857 5856 5855 5854 5854 5854 5853 5852 5852 5852 5852 5852 5852
5878 5878 5878 5877 5877 5876 5876 5876 5876 5875 5874 5874 5873 5873 5872 5871 5871 5870 5869 5868 5868 5867 5866 5865 5864 5863 5861 5860 5859 5858 5856 5855 5855 5854 5853 5852 5852 5851 5851 5851 5851 5850 5850 5850
5876 5877 5876 5876 5875 5875 5875 5875 5874 5874 5873 5873 5872 5872 5871 5870 5869 5869 5868 5867 5866 5865 5864 5863 5862 5861 5860 5859 5857 5856 5855 5854 5853 5852 5851 5851 5850 5850 5849 5849 5849 5848 5848 5848
5873 5874 5874 5874 5873 5873 5873 5873 5873 5872 5872 5872 5872 5871 5870 5869 5868 5867 5866 5865 5864 5863 5862 5861 5860 5859 5858 5857 5856 5854 5853 5852 5851 5850 5850 5849 5849 5848 5848 5847 5847 5846 5846 5846
5871 5871 5871 5871 5872 5871 5871 5871 5871 5870 5870 5870 5870 5869 5870 5867 5866 5865 5864 5863 5862 5861 5860 5859 5858 5857 5856 5855 5854 5853 5851 5850 5849 5848 5848 5847 5847 5846 5846 5845 5845 5844 5843 5843
5868 5869 5869 5869 5869 5869 5869 5869 5869 5868 5868 5869 5868 5868 5867 5865 5864 5863 5862 5861 5860 5859 5858 5857 5856 5855 5854 5853 5852 5851 5850 5848 5847 5846 5846 5845 5845 5844 5843 5843 5842 5842 5841 5841
5866 5866 5866 5866 5866 5867 5867 5867 5868 5867 5867 5867 5866 5865 5866 5863 5862 5861 5860 5859 5858 5857 5856 5855 5854 5853 5852 5851 5849 5848 5847 5846 5845 5844 5843 5843 5842 5841 5841 5840 5839 5839 5838 5838
5862 5863 5864 5863 5864 5864 5864 5865 5866 5865 5865 5864 5863 5863 5863 5861 5859 5858 5857 5856 5855 5854 5853 5852 5851 5850 5849 5848 5847 5846 5844 5843 5842 5842 5841 5840 5839 5839 5838 5837 5836 5836 5835 5835
5859 5860 5860 5860 5861 5861 5861 5861 5862 5862 5861 5861 5861 5860 5859 5858 5856 5855 5854 5853 5852 5851 5850 5849 5848 5847 5846 5845 5844 5842 5841 5840 5840 5839 5838 5837 5836 5835 5835 5834 5833 5832 5832 5831
5855 5856 5857 5857 5857 5858 5858 5858 5858 5858 5858 5858 5858 5857 5857 5855 5853 5852 5851 5850 5849 5848 5847 5846 5844 5843 5842 5841 5840 5839 5838 5837 5836 5836 5835 5834 5833 5832 5831 5830 5829 5828 5828 5827
5851 5852 5853 5853 5853 5854 5855 5855 5854 5854 5854 5854 5854 5856 5853 5851 5850 5849 5848 5847 5846 5845 5844 5842 5841 5840 5839 5837 5836 5836 5835 5834 5833 5832 5831 5830 5829 5828 5827 5826 5825 5824 5823 5823
5846 5848 5848 5849 5849 5849 5850 5850 5850 5851 5850 5850 5850 5853 5849 5847 5846 5845 5844 5843 5842 5841 5840 5839 5838 5836 5835 5834 5833 5832 5831 5830 5829 5828 5827 5826 5825 5823 5822 5821 5821 5820 5819 5818
5842 5843 5844 5845 5847 5846 5845 5845 5845 5846 5846 5846 5846 5849 5845 5843 5842 5841 5840 5839 5838 5837 5836 5835 5834 5833 5831 5830 5829 5828 5827 5826 5825 5824 5823 5822 5820 5819 5818 5817 5816 5815 5814 5813
5837 5839 5840 5841 5841 5840 5841 5841 5840 5841 5841 5842 5842 5842 5841 5839 5838 5837 5836 5835 5834 5833 5832 5831 5830 5828 5827 5826 5825 5824 5823 5822 5820 5819 5818 5817 5816 5814 5813 5812 5811 5810 5809 5809
5832 5834 5834 5835 5835 5835 5836 5836 5836 5836 5836 5837 5837 5836 5836 5834 5833 5833 5832 5831 5830 5829 5827 5826 5825 5824 5823 5822 5820 5819 5818 5817 5816 5814 5813 5812 5811 5809 5808 5807 5806 5805 5804 5804
5827 5828 5829 5830 5830 5830 5831 5831 5831 5831 5831 5831 5831 5832 5831 5829 5829 5828 5827 5826 5825 5824 5823 5822 5821 5820 5818 5817 5816 5815 5814 5812 5811 5810 5808 5807 5805 5804 5803 5802 5801 5800 5800 5799
5822 5823 5824 5824 5825 5825 5826 5827 5826 5826 5826 5826 5826 5827 5826 5825 5824 5823 5823 5822 5820 5819 5818 5817 5816 5815 5813 5812 5811 5810 5809 5807 5806 5804 5803 5801 5800 5798 5797 5796 5796 5795 5794 5794
5817 5817 5817 5818 5819 5819 5824 5822 5821 5821 5821 5821 5820 5820 5820 5820 5819 5818 5817 5816 5815 5814 5813 5812 5811 5809 5808 5807 5806 5804 5803 5802 5800 5799 5797 5796 5794 5793 5792 5790 5790 5789 5788 5788
5810 5811 5811 5812 5812 5813 5816 5816 5815 5815 5815 5815 5815 5814 5814 5814 5813 5813 5812 5810 5810 5808 5807 5806 5805 5804 5803 5801 5800 5798 5797 5796 5794 5793 5791 5790 5788 5787 5786 5785 5784 5783 5782 5782
5803 5804 5805 5805 5805 5807 5810 5810 5809 5810 5809 5810 5809 5808 5808 5808 5808 5808 5806 5805 5804 5803 5802 5800 5799 5798 5797 5795 5794 5792 5791 5789 5788 5787 5785 5783 5782 5781 5779 5778 5777 5776 5776 5775
5796 5797 5797 5797 5797 5799 5802 5802 5802 5804 5804 5803 5802 5801 5801 5801 5801 5801 5800 5798 5798 5797 5796 5794 5793 5792 5790 5789 5787 5785 5784 5783 5781 5780 5778 5777 5775 5774 5773 5771 5770 5770 5769 5768
5788 5789 5790 5790 5790 5794 5793 5794 5795 5795 5795 5795 5795 5794 5794 5794 5794 5793 5793 5792 5791 5790 5789 5788 5787 5785 5784 5782 5780 5779 5777 5776 5774 5773 5771 5770 5768 5767 5766 5764 5763 5762 5761 5760
5779 5781 5781 5782 5785 5784 5784 5785 5785 5786 5786 5786 5787 5787 5787 5786 5786 5786 5785 5785 5784 5783 5782 5781 5780 5779 5777 5776 5774 5772 5771 5769 5767 5766 5764 5763 5761 5760 5758 5757 5756 5754 5753 5752
5769 5770 5771 5772 5774 5775 5775 5775 5776 5777 5777 5778 5778 5778 5778 5778 5778 5778 5778 5777 5776 5776 5775 5774 5773 5772 5770 5769 5767 5766 5764 5762 5760 5759 5757 5756 5754 5752 5751 5749 5748 5746 5745 5744
5759 5760 5761 5762 5765 5765 5766 5766 5767 5767 5768 5769 5769 5769 5769 5769 5769 5769 5769 5769 5768 5767 5767 5766 5765 5764 5763 5761 5760 5758 5757 5755 5753 5752 5750 5748 5746 5744 5743 5741 5739 5738 5736 5735
5749 5750 5751 5753 5755 5755 5756 5757 5757 5758 5759 5760 5760 5760 5760 5760 5760 5760 5760 5759 5759 5758 5758 5757 5756 5755 5754 5753 5752 5751 5749 5747 5745 5744 5742 5740 5738 5737 5735 5733 5731 5729 5728 5726